Main page
Satellite images Climate Cyclones Lightning AirportsFAQ Languages Contact Newsletter About
Weather : Europe Africa North America South America Asia Australia-Oceania Others

, Mae Hong Son, Mae Hong Son Airport

48300

latitude: , longitude: Thailand, elevation: 19-18N m


METAR: VTCH 121000Z 00000KT 9999 FEW020 24/21 Q1013 NOSIG